Amateur Radio Satellites - All Passes

Search period start: 19 June 2013 03:54
Search period end: 20 June 2013 03:54
Location: Pinon Hills, 34.4429°N, 117.6403°W

Satellite Date Start Highest point End Downlink Frequencies (MHz)
Time Altitude Azimuth
ITAMSAT 1 19 Jun 03:57:31 04:01:35 24° 293° (WNW) 04:05:39 435.822 SSB
AO-27 19 Jun 03:58:38 04:02:37 23° 293° (WNW) 04:06:36 436.795 MHz FM
KITSAT 1 19 Jun 04:25:04 04:31:50 30° 254° (WSW) 04:38:35 435.175 FM
Uribyol 2 19 Jun 04:34:02 04:34:49 10° 298° (WNW) 04:35:36 436.500 FM
AO-Echo 19 Jun 04:37:38 04:41:47 25° 291° (WNW) 04:46:00 ?
UOSAT-12 19 Jun 04:45:54 04:49:59 33° 305° (NW) 04:54:07 437.025 FM, 437.400 FM
TMSAT-1 19 Jun 04:51:21 04:56:41 84° 284° (WNW) 05:01:59 436.925 FM
Uosat F 19 Jun 04:56:29 05:01:15 43° 288° (WNW) 05:06:01 435.120 FM
AO-7 19 Jun 05:23:01 05:31:08 52° 102° (ESE) 05:39:10 29.400 - 29.500 MHz
MaSat-1 19 Jun 05:29:11 05:31:34 40° 65° (ENE) 05:34:02 437.345 MHz
Gurwin Techsat 1B 19 Jun 05:32:39 05:36:44 23° 293° (WNW) 05:40:48 435.225 FM
STRAND 1 19 Jun 06:19:42 06:24:45 66° 74° (ENE) 06:29:51 ?
Saudisat 1A 19 Jun 07:16:14 07:20:39 52° 58° (ENE) 07:24:58 436.775 MHz
AO-7 19 Jun 07:16:25 07:23:30 32° 298° (WNW) 07:30:35 29.400 - 29.500 MHz
SO-67 19 Jun 07:30:05 07:31:08 11° 93° (E) 07:32:10 435.3500 MHz FM
STRAND 1 19 Jun 08:02:42 08:04:21 11° 268° (W) 08:06:00 ?
Hamsat 19 Jun 08:07:18 08:11:37 58° 285° (WNW) 08:15:51 145.90 MHz
JAS-1B 19 Jun 08:17:10 08:23:09 75° 103° (ESE) 08:30:04 435.800 - 435.900 CW/SSB
Sapphire 19 Jun 08:53:44 08:55:13 11° 46° (NE) 08:56:40 437.095 MHz 1200 baud AX-25 AFSK
HO-68 19 Jun 08:54:13 08:58:12 16° 92° (E) 09:02:10 435.675 MHz FM
Saudisat 1A 19 Jun 08:57:53 08:59:49 13° 253° (WSW) 09:01:45 436.775 MHz
SO-67 19 Jun 09:01:25 09:04:40 33° 286° (WNW) 09:07:53 435.3500 MHz FM
JAS-2 19 Jun 09:05:11 09:05:57 10° 90° (E) 09:06:43 435.800 - 435.900 CW/SSB, 435.910 FM
Oscar 11 19 Jun 09:48:50 09:52:00 19° 95° (E) 09:55:09 145.825 FM, Beacon 2401.500 USB
SO-50 19 Jun 09:58:49 10:02:51 31° 54° (NE) 10:06:49 436.795 FM
PCSat 19 Jun 09:59:39 10:04:48 42° 59° (ENE) 10:09:54 145.825 MHz
JAS-1B 19 Jun 10:10:34 10:13:20 14° 296° (WNW) 10:16:13 435.800 - 435.900 CW/SSB
OPAL 19 Jun 10:30:52 10:33:27 14° 95° (E) 10:36:03 ?
Sapphire 19 Jun 10:34:02 10:39:29 81° 64° (ENE) 10:44:54 437.095 MHz 1200 baud AX-25 AFSK
HO-68 19 Jun 10:39:17 10:46:29 79° 287° (WNW) 10:53:39 435.675 MHz FM
JAS-2 19 Jun 10:46:21 10:51:38 66° 286° (WNW) 10:56:44 435.800 - 435.900 CW/SSB, 435.910 FM
RS-15 19 Jun 10:49:29 11:00:47 48° 109° (ESE) 11:11:38 29.354 - 29.394 USB, Beacon 29.352 USB
Oscar 11 19 Jun 11:24:24 11:28:13 30° 289° (WNW) 11:32:00 145.825 FM, Beacon 2401.500 USB
SO-50 19 Jun 11:39:46 11:43:15 22° 249° (WSW) 11:46:43 436.795 FM
PCSat 19 Jun 11:43:48 11:47:54 22° 254° (WSW) 11:51:58 145.825 MHz
OPAL 19 Jun 12:07:46 12:12:36 53° 289° (WNW) 12:17:27 ?
Sapphire 19 Jun 12:21:28 12:22:08 10° 258° (WSW) 12:22:49 437.095 MHz 1200 baud AX-25 AFSK
HO-68 19 Jun 12:30:10 12:33:01 13° 304° (NW) 12:35:52 435.675 MHz FM
RS-15 19 Jun 13:01:43 13:13:08 48° 308° (NW) 13:24:09 29.354 - 29.394 USB, Beacon 29.352 USB
Oscar 19 19 Jun 13:07:26 13:11:42 27° 69° (ENE) 13:15:57 437.125 CW, 437.150 USB
UOSAT-12 19 Jun 13:18:23 13:23:00 76° 60° (ENE) 13:27:36 437.025 FM, 437.400 FM
ITAMSAT 1 19 Jun 13:32:11 13:36:57 38° 71° (ENE) 13:41:45 435.822 SSB
AO-27 19 Jun 13:33:17 13:38:07 40° 71° (ENE) 13:42:58 436.795 MHz FM
Oscar 16 19 Jun 13:51:29 13:56:40 88° 76° (ENE) 14:01:52 437.025 USB, Beacon 2401.1428
Uribyol 2 19 Jun 14:05:10 14:10:23 86° 76° (ENE) 14:15:39 436.500 FM
AO-Echo 19 Jun 14:08:50 14:12:48 28° 70° (ENE) 14:16:49 ?
ISS 19 Jun 14:14:44 14:16:22 13° 127° (SE) 14:18:00 145.800 FM
Uosat F 19 Jun 14:29:24 14:32:40 18° 66° (ENE) 14:35:56 435.120 FM
TMSAT-1 19 Jun 14:33:00 14:34:39 11° 62° (ENE) 14:36:18 436.925 FM
Oscar 19 19 Jun 14:46:22 14:50:54 30° 263° (W) 14:55:26 437.125 CW, 437.150 USB
Gurwin Techsat 1B 19 Jun 15:09:45 15:14:42 42° 72° (ENE) 15:19:41 435.225 FM
ITAMSAT 1 19 Jun 15:12:37 15:16:32 21° 265° (W) 15:20:28 435.822 SSB
AO-27 19 Jun 15:13:57 15:17:44 20° 265° (W) 15:21:33 436.795 MHz FM
RS-15 19 Jun 15:23:24 15:29:27 15° 337° (NNW) 15:35:23 29.354 - 29.394 USB, Beacon 29.352 USB
AO-Echo 19 Jun 15:47:45 15:51:32 24° 264° (W) 15:55:23 ?
ISS 19 Jun 15:49:34 15:52:44 44° 321° (NW) 15:55:54 145.800 FM
Uosat F 19 Jun 16:06:17 16:11:04 45° 260° (W) 16:15:53 435.120 FM
TMSAT-1 19 Jun 16:08:34 16:13:52 78° 258° (WSW) 16:19:11 436.925 FM
AO-7 19 Jun 16:17:57 16:25:52 51° 67° (ENE) 16:33:50 29.400 - 29.500 MHz
Gurwin Techsat 1B 19 Jun 16:51:00 16:54:48 20° 266° (W) 16:58:38 435.225 FM
KITSAT 1 19 Jun 16:52:46 17:00:37 60° 112° (ESE) 17:08:31 435.175 FM
RS-15 19 Jun 17:44:31 17:49:13 13° 17° (NNE) 17:53:50 29.354 - 29.394 USB, Beacon 29.352 USB
AO-7 19 Jun 18:11:42 18:18:48 31° 262° (W) 18:25:59 29.400 - 29.500 MHz
MaSat-1 19 Jun 18:15:51 18:19:16 16° 107° (ESE) 18:22:18 437.345 MHz
STRAND 1 19 Jun 18:34:32 18:39:03 30° 97° (E) 18:43:31 ?
KITSAT 1 19 Jun 18:49:36 18:56:25 29° 310° (NW) 19:03:18 435.175 FM
Hamsat 19 Jun 18:57:28 19:01:44 64° 76° (ENE) 19:06:04 145.90 MHz
JAS-1B 19 Jun 18:59:04 19:05:49 46° 72° (ENE) 19:11:39 435.800 - 435.900 CW/SSB
SO-67 19 Jun 19:33:20 19:36:45 45° 75° (ENE) 19:40:11 435.3500 MHz FM
MaSat-1 19 Jun 19:55:17 20:01:02 54° 293° (WNW) 20:05:30 437.345 MHz
RS-15 19 Jun 19:55:51 20:06:04 40° 49° (NE) 20:16:03 29.354 - 29.394 USB, Beacon 29.352 USB
PANSAT 19 Jun 19:58:03 19:59:29 12° 158° (SSE) 20:00:56 not established
STRAND 1 19 Jun 20:13:48 20:18:06 27° 291° (WNW) 20:22:22 ?
Oscar 11 19 Jun 20:43:11 20:44:09 11° 65° (ENE) 20:45:08 145.825 FM, Beacon 2401.500 USB
JAS-1B 19 Jun 20:50:56 20:56:30 24° 262° (W) 21:01:29 435.800 - 435.900 CW/SSB
JAS-2 19 Jun 20:53:01 20:59:47 39° 70° (ENE) 21:05:55 435.800 - 435.900 CW/SSB, 435.910 FM
HO-68 19 Jun 21:03:35 21:10:30 56° 70° (ENE) 21:17:26 435.675 MHz FM
Saudisat 1A 19 Jun 21:20:17 21:24:21 33° 113° (ESE) 21:28:28 436.775 MHz
PANSAT 19 Jun 21:35:59 21:39:18 27° 169° (S) 21:42:36 not established
OPAL 19 Jun 21:42:23 21:45:48 19° 64° (ENE) 21:49:12 ?
RS-15 19 Jun 22:08:09 22:18:39 54° 250° (WSW) 22:29:04 29.354 - 29.394 USB, Beacon 29.352 USB
Oscar 11 19 Jun 22:15:33 22:19:50 58° 259° (W) 22:24:09 145.825 FM, Beacon 2401.500 USB
ISS 19 Jun 22:21:01 22:24:06 36° 38° (NE) 22:27:11 145.800 FM
JAS-2 19 Jun 22:37:55 22:44:41 36° 262° (W) 22:50:54 435.800 - 435.900 CW/SSB, 435.910 FM
HO-68 19 Jun 22:53:00 22:58:27 23° 265° (W) 23:03:57 435.675 MHz FM
Saudisat 1A 19 Jun 23:00:24 23:04:04 23° 308° (NW) 23:07:46 436.775 MHz
PANSAT 19 Jun 23:15:46 23:19:17 33° 182° (S) 23:22:48 not established
OPAL 19 Jun 23:19:33 23:24:21 44° 258° (WSW) 23:29:07 ?
Sapphire 19 Jun 23:31:16 23:34:40 17° 104° (ESE) 23:38:05 437.095 MHz 1200 baud AX-25 AFSK
ISS 19 Jun 23:58:25 00:00:33 16° 232° (SW) 00:02:40 145.800 FM
SO-50 20 Jun 00:11:08 00:14:59 25° 111° (ESE) 00:18:48 436.795 FM
PCSat 20 Jun 00:37:33 00:42:56 81° 114° (ESE) 00:48:23 145.825 MHz
KITSAT 1 20 Jun 00:51:17 00:56:21 17° 41° (NE) 01:01:23 435.175 FM
PANSAT 20 Jun 00:56:13 00:59:13 21° 195° (SSW) 01:02:13 not established
Sapphire 20 Jun 01:12:21 01:17:36 52° 299° (WNW) 01:22:54 437.095 MHz 1200 baud AX-25 AFSK
Oscar 19 20 Jun 01:24:32 01:26:21 12° 92° (E) 01:28:10 437.125 CW, 437.150 USB
ITAMSAT 1 20 Jun 01:49:41 01:53:15 18° 94° (E) 01:56:47 435.822 SSB
AO-27 20 Jun 01:50:51 01:54:35 20° 94° (E) 01:58:17 436.795 MHz FM
SO-50 20 Jun 01:51:10 01:55:26 32° 305° (NW) 01:59:41 436.795 FM
Oscar 16 20 Jun 02:07:12 02:12:03 42° 99° (E) 02:16:52 437.025 USB, Beacon 2401.1428
AO-Echo 20 Jun 02:20:40 02:23:09 13° 92° (E) 02:25:39 ?
Uribyol 2 20 Jun 02:21:58 02:26:54 42° 99° (E) 02:31:46 436.500 FM
PCSat 20 Jun 02:24:18 02:27:00 14° 312° (NW) 02:29:43 145.825 MHz
KITSAT 1 20 Jun 02:44:56 02:53:06 78° 62° (ENE) 03:01:12 435.175 FM
Oscar 19 20 Jun 03:01:01 03:06:05 64° 286° (WNW) 03:11:07 437.125 CW, 437.150 USB
UOSAT-12 20 Jun 03:26:31 03:30:52 52° 115° (ESE) 03:35:17 437.025 FM, 437.400 FM
ITAMSAT 1 20 Jun 03:27:58 03:32:55 44° 288° (WNW) 03:37:50 435.822 SSB
AO-27 20 Jun 03:29:20 03:34:14 42° 289° (WNW) 03:39:06 436.795 MHz FM
Gurwin Techsat 1B 20 Jun 03:30:13 03:34:22 23° 95° (E) 03:38:29 435.225 FM

Developed and maintained by Chris Peat, Heavens-Above GmbH. Please read the updated FAQ before sending e-mail. Imprint. DLR
